Location: Acton
(51.4942°N, 0.2232°W)
Time: 14:13:28
(UTC+00:00)

Okean 1-7 Rocket - Pass Details

Date: 26 January 2021
Orbit: 615 x 650 km, 82.5° (Epoch: 28 February)

Event Time Altitude Azimuth Distance (km) Brightness Sun altitude
Rises 18:06:50 0° 199° (SSW) 2,954 7.5 -13.4°
Reaches altitude 10° 18:09:06 10° 204° (SSW) 2,050 6.7 -13.7°
Maximum altitude 18:13:36 59° 283° (WNW) 757 4.3 -14.4°
Drops below altitude 10° 18:18:09 10° 4° (N) 2,068 6.1 -15.1°
Sets 18:20:27 0° 8° (N) 2,981 6.9 -15.4°
